Hourly Weather Kozyatyn

Today, 26 October, Monday

Time Temperature Precipitation Wind Pressure Humidity
00:00 +10°C° 0 mm 3 mps 738 mmHg 78%
01:00 +10°C° 0 mm 3 mps 738 mmHg 79%
02:00 +10°C° 0 mm 3 mps 738 mmHg 79%
03:00 +10°C° 0 mm 3 mps 738 mmHg 80%
04:00 +9°C° 0 mm 3 mps 738 mmHg 81%
05:00 +9°C° 0 mm 3 mps 738 mmHg 82%
06:00 +8°C° 0 mm 4 mps 738 mmHg 81%
07:00 +10°C° 0 mm 4 mps 738 mmHg 80%
08:00 +10°C° 0 mm 4 mps 738 mmHg 79%
09:00 +11°C° 0 mm 4 mps 738 mmHg 75%
10:00 +13°C° 0 mm 4 mps 738 mmHg 71%
11:00 +14°C° 0 mm 5 mps 738 mmHg 68%
12:00 +15°C° 0 mm 5 mps 737 mmHg 66%
13:00 +15°C° 0 mm 5 mps 737 mmHg 64%
14:00 +16°C° 0 mm 5 mps 737 mmHg 63%
15:00 +15°C° 0 mm 4 mps 737 mmHg 67%
16:00 +14°C° 0 mm 4 mps 737 mmHg 72%
17:00 +13°C° 0 mm 3 mps 736 mmHg 77%
18:00 +12°C° 0 mm 4 mps 737 mmHg 78%
19:00 +12°C° 0 mm 4 mps 737 mmHg 79%
20:00 +12°C° 0 mm 4 mps 737 mmHg 80%
21:00 +12°C° 0 mm 4 mps 737 mmHg 79%
22:00 +11°C° 0 mm 4 mps 737 mmHg 78%
23:00 +10°C° 0 mm 5 mps 737 mmHg 78%

Tomorrow, 27 October, Tuesday

Time Temperature Precipitation Wind Pressure Humidity
00:00 +11°C° 0 mm 4 mps 737 mmHg 79%
01:00 +10°C° 0 mm 4 mps 737 mmHg 80%
02:00 +10°C° 0 mm 4 mps 737 mmHg 81%
03:00 +9°C° 0 mm 3 mps 737 mmHg 82%
04:00 +9°C° 0 mm 3 mps 737 mmHg 83%
05:00 +9°C° 0 mm 3 mps 737 mmHg 84%
06:00 +9°C° 0 mm 3 mps 737 mmHg 83%
07:00 +9°C° 0 mm 3 mps 737 mmHg 82%
08:00 +9°C° 0 mm 3 mps 737 mmHg 80%
09:00 +11°C° 0 mm 3 mps 738 mmHg 75%
10:00 +12°C° 0 mm 4 mps 738 mmHg 71%
11:00 +14°C° 0 mm 4 mps 738 mmHg 66%
12:00 +15°C° 0 mm 4 mps 738 mmHg 64%
13:00 +15°C° 0 mm 4 mps 738 mmHg 63%
14:00 +17°C° 0 mm 4 mps 738 mmHg 61%
15:00 +15°C° 0 mm 4 mps 738 mmHg 65%
16:00 +14°C° 0 mm 3 mps 737 mmHg 69%
17:00 +13°C° 0 mm 3 mps 737 mmHg 73%
18:00 +13°C° 0 mm 3 mps 737 mmHg 75%
19:00 +12°C° 0 mm 3 mps 737 mmHg 76%
20:00 +12°C° 0 mm 3 mps 737 mmHg 77%
21:00 +11°C° 0 mm 4 mps 738 mmHg 79%
22:00 +11°C° 0 mm 4 mps 738 mmHg 81%
23:00 +11°C° 0 mm 4 mps 738 mmHg 82%

Day after tomorrow, 28 October, Wednesday

Time Temperature Precipitation Wind Pressure Humidity
00:00 +11°C° 0 mm 4 mps 738 mmHg 84%
01:00 +10°C° 0 mm 4 mps 738 mmHg 85%
02:00 +10°C° 0 mm 3 mps 738 mmHg 86%
03:00 +10°C° 0 mm 3 mps 738 mmHg 88%
04:00 +10°C° 0 mm 3 mps 738 mmHg 89%
05:00 +9°C° 0 mm 3 mps 738 mmHg 91%
06:00 +8°C° 0 mm 4 mps 738 mmHg 89%
07:00 +8°C° 0 mm 4 mps 738 mmHg 86%
08:00 +8°C° 0 mm 4 mps 738 mmHg 84%
09:00 +11°C° 0 mm 4 mps 738 mmHg 77%
10:00 +12°C° 0 mm 4 mps 739 mmHg 70%
11:00 +14°C° 0 mm 4 mps 739 mmHg 63%
12:00 +14°C° 0 mm 4 mps 739 mmHg 61%
13:00 +15°C° 0 mm 4 mps 739 mmHg 59%
14:00 +15°C° 0 mm 4 mps 738 mmHg 57%
15:00 +14°C° 0 mm 4 mps 738 mmHg 60%
16:00 +13°C° 0 mm 3 mps 738 mmHg 64%
17:00 +12°C° 0 mm 3 mps 738 mmHg 68%
18:00 +11°C° 0 mm 3 mps 738 mmHg 70%
19:00 +11°C° 0 mm 3 mps 738 mmHg 72%
20:00 +10°C° 0 mm 3 mps 738 mmHg 73%
21:00 +10°C° 0 mm 3 mps 738 mmHg 75%
22:00 +9°C° 0 mm 3 mps 738 mmHg 77%
23:00 +9°C° 0 mm 3 mps 738 mmHg 79%

29 October, Thursday

Time Temperature Precipitation Wind Pressure Humidity
00:00 +8°C° 0 mm 2 mps 738 mmHg 79%
01:00 +8°C° 0 mm 2 mps 738 mmHg 80%
02:00 +8°C° 0 mm 2 mps 738 mmHg 81%
03:00 +7°C° 0 mm 2 mps 738 mmHg 82%
04:00 +7°C° 0 mm 2 mps 738 mmHg 83%
05:00 +7°C° 0 mm 2 mps 738 mmHg 84%
06:00 +7°C° 0 mm 2 mps 738 mmHg 83%
07:00 +7°C° 0 mm 2 mps 738 mmHg 83%
08:00 +7°C° 0 mm 2 mps 738 mmHg 82%
09:00 +9°C° 0 mm 2 mps 738 mmHg 76%
10:00 +10°C° 0 mm 2 mps 738 mmHg 69%
11:00 +13°C° 0 mm 2 mps 738 mmHg 63%
12:00 +14°C° 0 mm 2 mps 738 mmHg 61%
13:00 +14°C° 0 mm 1 mps 738 mmHg 59%
14:00 +15°C° 0 mm 1 mps 738 mmHg 57%
15:00 +14°C° 0 mm 1 mps 738 mmHg 61%
16:00 +12°C° 0 mm 0 mps 738 mmHg 65%
17:00 +11°C° 0 mm 0 mps 738 mmHg 70%
18:00 +10°C° 0 mm 0 mps 738 mmHg 72%
19:00 +10°C° 0 mm 0 mps 738 mmHg 74%
20:00 +10°C° 0 mm 1 mps 739 mmHg 76%
21:00 +10°C° 0 mm 1 mps 739 mmHg 76%
22:00 +10°C° 0 mm 1 mps 739 mmHg 77%
23:00 +10°C° 0 mm 1 mps 739 mmHg 77%

30 October, Friday

Time Temperature Precipitation Wind Pressure Humidity
00:00 +11°C° 0 mm 1 mps 739 mmHg 78%
01:00 +11°C° 0 mm 1 mps 739 mmHg 79%
02:00 +10°C° 0 mm 2 mps 739 mmHg 80%
03:00 +10°C° 0 mm 2 mps 740 mmHg 83%
04:00 +10°C° 0 mm 2 mps 740 mmHg 87%
05:00 +10°C° 0 mm 2 mps 740 mmHg 90%
06:00 +10°C° 0 mm 2 mps 740 mmHg 91%
07:00 +9°C° 0 mm 2 mps 740 mmHg 92%
08:00 +9°C° 0 mm 2 mps 741 mmHg 93%
09:00 +12°C° 0 mm 2 mps 741 mmHg 86%
10:00 +13°C° 0 mm 2 mps 741 mmHg 78%
11:00 +15°C° 0 mm 2 mps 741 mmHg 71%
12:00 +14°C° 0 mm 3 mps 741 mmHg 66%
13:00 +16°C° 0 mm 3 mps 741 mmHg 61%
14:00 +16°C° 0 mm 3 mps 741 mmHg 57%
15:00 +14°C° 0 mm 3 mps 741 mmHg 61%
16:00 +14°C° 0 mm 2 mps 742 mmHg 66%
17:00 +13°C° 0 mm 2 mps 742 mmHg 71%
18:00 +12°C° 0 mm 2 mps 742 mmHg 74%
19:00 +12°C° 0 mm 2 mps 742 mmHg 77%
20:00 +10°C° 0 mm 2 mps 742 mmHg 80%
21:00 +10°C° 0 mm 2 mps 742 mmHg 81%
22:00 +10°C° 0 mm 2 mps 742 mmHg 83%
23:00 +9°C° 0 mm 2 mps 742 mmHg 85%

31 October, Saturday

Time Temperature Precipitation Wind Pressure Humidity
00:00 +9°C° 0 mm 2 mps 742 mmHg 86%
01:00 +9°C° 0 mm 2 mps 742 mmHg 87%
02:00 +9°C° 0 mm 2 mps 742 mmHg 88%
03:00 +8°C° 0 mm 2 mps 742 mmHg 89%
04:00 +8°C° 0 mm 2 mps 742 mmHg 89%
05:00 +8°C° 0 mm 2 mps 742 mmHg 89%
06:00 +8°C° 0 mm 2 mps 742 mmHg 89%
07:00 +9°C° 0 mm 2 mps 742 mmHg 88%
08:00 +9°C° 0 mm 2 mps 742 mmHg 87%
Show more